W5TTY Weather Reports


time (UTC)temp
C
wind
direction
speed
KPH
gust
KPH
rain 1hr
cm
rain 24hr
cm
rain mn
cm
humidity
%
barometer
mb
20260904141330 27 147 6.4 12.9 0.00 1.12 0.05 94 1014.5
20260904140902 27 143 1.6 12.9 0.00 1.12 0.05 93 1014.6
20260904140321 27 123 8.0 12.9 0.00 1.12 0.05 93 1014.5
20260904135827 26 197 3.2 6.4 0.00 1.12 0.05 93 1014.4
20260904135329 26 117 1.6 6.4 0.00 1.14 0.05 93 1014.4
20260904134828 26 98 3.2 9.7 0.00 1.14 0.05 93 1014.4
20260904134334 26 85 6.4 12.9 0.00 1.14 0.05 93 1014.3
20260904133817 26 97 6.4 12.9 0.00 1.14 0.05 93 1014.4
20260904133350 26 111 6.4 12.9 0.00 1.14 0.05 93 1014.4
20260904132901 26 103 6.4 12.9 0.00 1.14 0.05 93 1014.4
20260904132342 26 95 4.8 9.7 0.00 1.14 0.05 93 1014.4
20260904131820 26 103 4.8 11.3 0.00 1.14 0.05 93 1014.3
20260904131333 26 78 4.8 8.0 0.00 1.14 0.05 93 1014.2
20260904130840 26 70 4.8 6.4 0.00 1.14 0.05 93 1014.1
20260904130327 26 84 1.6 9.7 0.00 1.14 0.05 93 1014.0
20260904125831 26 97 3.2 9.7 0.00 1.14 0.05 93 1014.0
20260904125335 25 91 1.6 9.7 0.00 1.14 0.05 93 1014.0
20260904124820 25 101 4.8 9.7 0.00 1.14 0.05 93 1013.9
20260904124326 25 103 4.8 9.7 0.00 1.14 0.05 93 1013.8
20260904123828 25 96 3.2 6.4 0.00 1.14 0.05 93 1013.8
20260904123329 25 107 3.2 6.4 0.00 1.14 0.05 93 1013.8
20260904122836 25 109 3.2 6.4 0.00 1.14 0.05 93 1013.6
20260904122320 25 100 3.2 6.4 0.00 1.14 0.05 93 1013.6
20260904121823 25 115 1.6 6.4 0.00 1.14 0.05 93 1013.6
20260904121329 25 119 3.2 6.4 0.00 1.14 0.05 93 1013.5
20260904120844 25 126 3.2 6.4 0.00 1.14 0.05 93 1013.3
20260904120326 25 126 3.2 6.4 0.00 1.14 0.05 93 1013.3
20260904115831 25 117 3.2 9.7 0.00 1.14 0.05 93 1013.2
20260904115337 25 107 4.8 9.7 0.00 1.14 0.05 93 1013.3
20260904114841 25 111 4.8 9.7 0.00 1.14 0.05 93 1013.3
20260904114332 25 101 3.2 9.7 0.00 1.14 0.05 93 1013.1
20260904113821 25 85 3.2 9.7 0.00 1.14 0.05 93 1013.1
20260904113347 25 82 3.2 9.7 0.00 1.14 0.05 93 1013.1
20260904112832 25 101 4.8 6.4 0.00 1.14 0.05 93 1013.1
20260904112357 25 107 3.2 6.4 0.00 1.14 0.05 93 1013.1
20260904111823 25 106 3.2 6.4 0.00 1.14 0.05 93 1013.0
20260904111329 25 119 3.2 6.4 0.00 1.14 0.05 93 1012.9
20260904110836 25 124 3.2 9.7 0.00 1.14 0.05 93 1012.9
20260904110322 25 126 4.8 9.7 0.00 1.14 0.05 93 1013.0
20260904105829 25 115 4.8 6.4 0.00 1.14 0.05 93 1013.0
20260904105354 25 130 1.6 4.8 0.00 1.14 0.05 93 1013.0
20260904104819 25 130 3.2 4.8 0.00 1.14 0.05 93 1013.0
20260904104323 25 130 3.2 4.8 0.00 1.14 0.05 93 1013.0